Station Historical Data
Daily Summary for June 25, 2012 Units:  English    Metric   Both
« Previous Day
Next Day »
Daily Weekly Monthly Yearly Custom
  High: Low: Average:
Temperature: 95.3 °F 73.0 °F 84.1 °F
Dew Point: 67.5 °F 57.2 °F 62.3 °F
Humidity: 62% 34% 49%
Wind Speed: 13.0mph 0.0mph 4.2mph
Wind Gust: 19.0mph - -
Wind- - ESE
Pressure: 29.81 in 29.67 in -
Precipitation: 0.00 in    
Historical Graphs
 
 
Tabular Data for June 25, 2012
Time Temperature Dew Point Pressure Wind Wind Speed Wind Gust Humidity Rainfall Rate (Hourly) Conditions
00:00 79.1 °F 58.3 °F 29.81 in NW 2.0 mph 4.0 mph 49% 0.00 in
00:05 79.1 °F 58.3 °F 29.80 in NNW 3.0 mph 5.0 mph 49% 0.00 in
00:10 78.9 °F 58.7 °F 29.80 in North 3.0 mph 4.0 mph 50% 0.00 in
00:15 78.7 °F 58.5 °F 29.81 in North 3.0 mph 4.0 mph 50% 0.00 in
00:20 78.6 °F 58.4 °F 29.81 in North 2.0 mph 5.0 mph 50% 0.00 in
00:25 78.5 °F 58.3 °F 29.81 in NNW 1.0 mph 4.0 mph 50% 0.00 in
00:30 78.5 °F 58.3 °F 29.81 in NNE 2.0 mph 5.0 mph 50% 0.00 in
00:35 78.5 °F 58.3 °F 29.81 in NE 2.0 mph 5.0 mph 50% 0.00 in
00:40 78.5 °F 58.3 °F 29.81 in North 2.0 mph 3.0 mph 50% 0.00 in
00:45 78.4 °F 58.2 °F 29.80 in NNE 3.0 mph 5.0 mph 50% 0.00 in
00:50 78.4 °F 58.2 °F 29.80 in NNE 2.0 mph 4.0 mph 50% 0.00 in
00:55 78.5 °F 58.3 °F 29.80 in NNE 2.0 mph 4.0 mph 50% 0.00 in
01:00 78.5 °F 57.8 °F 29.80 in NNE 1.0 mph 4.0 mph 49% 0.00 in
01:05 78.3 °F 58.2 °F 29.80 in NNE 3.0 mph 3.0 mph 50% 0.00 in
01:10 78.3 °F 58.2 °F 29.80 in NNE 2.0 mph 4.0 mph 50% 0.00 in
01:15 78.2 °F 58.1 °F 29.80 in NNE 1.0 mph 3.0 mph 50% 0.00 in
01:20 78.0 °F 57.9 °F 29.80 in NE 2.0 mph 4.0 mph 50% 0.00 in
01:25 77.9 °F 57.8 °F 29.80 in NE 3.0 mph 3.0 mph 50% 0.00 in
01:30 77.9 °F 57.8 °F 29.80 in NNE 2.0 mph 4.0 mph 50% 0.00 in
01:35 77.9 °F 57.8 °F 29.80 in NE 3.0 mph 3.0 mph 50% 0.00 in
01:40 77.8 °F 57.7 °F 29.80 in NE 2.0 mph 5.0 mph 50% 0.00 in
01:45 77.8 °F 57.7 °F 29.80 in NNE 2.0 mph 3.0 mph 50% 0.00 in
01:50 77.6 °F 57.5 °F 29.79 in NE 3.0 mph 4.0 mph 50% 0.00 in
01:55 77.5 °F 57.4 °F 29.79 in NNE 1.0 mph 3.0 mph 50% 0.00 in
02:00 77.3 °F 57.8 °F 29.79 in NNE 1.0 mph 3.0 mph 51% 0.00 in
02:05 77.1 °F 57.6 °F 29.79 in NNE 1.0 mph 3.0 mph 51% 0.00 in
02:10 76.9 °F 57.4 °F 29.79 in NE 1.0 mph 2.0 mph 51% 0.00 in
02:16 76.6 °F 57.7 °F 29.79 in North 1.0 mph 3.0 mph 52% 0.00 in
02:21 76.4 °F 57.5 °F 29.78 in Calm   2.0 mph 52% 0.00 in
02:26 76.1 °F 57.2 °F 29.78 in NNE 1.0 mph 1.0 mph 52% 0.00 in
02:31 75.9 °F 57.6 °F 29.78 in NE 1.0 mph 1.0 mph 53% 0.00 in
02:36 75.6 °F 57.3 °F 29.78 in NNE 1.0 mph 2.0 mph 53% 0.00 in
02:41 75.4 °F 57.6 °F 29.78 in NE 2.0 mph 2.0 mph 54% 0.00 in
02:46 75.3 °F 57.5 °F 29.78 in NE 2.0 mph 3.0 mph 54% 0.00 in
02:51 75.4 °F 57.6 °F 29.78 in NNE 2.0 mph 3.0 mph 54% 0.00 in
02:56 75.4 °F 57.6 °F 29.78 in NE 1.0 mph 3.0 mph 54% 0.00 in
03:01 75.3 °F 57.5 °F 29.78 in NNE 1.0 mph 2.0 mph 54% 0.00 in
03:06 75.2 °F 57.4 °F 29.78 in North 2.0 mph 3.0 mph 54% 0.00 in
03:11 74.9 °F 57.7 °F 29.78 in North 1.0 mph 3.0 mph 55% 0.00 in
03:16 74.6 °F 57.4 °F 29.78 in NNE 1.0 mph 3.0 mph 55% 0.00 in
03:21 74.5 °F 57.8 °F 29.78 in NNE 2.0 mph 2.0 mph 56% 0.00 in
03:27 74.2 °F 57.5 °F 29.77 in NNW 2.0 mph 3.0 mph 56% 0.00 in
03:31 73.9 °F 57.7 °F 29.77 in North 3.0 mph 3.0 mph 57% 0.00 in
03:37 73.9 °F 57.7 °F 29.77 in NNW 3.0 mph 3.0 mph 57% 0.00 in
03:42 73.7 °F 58.0 °F 29.77 in NNW 2.0 mph 3.0 mph 58% 0.00 in
03:47 73.8 °F 58.1 °F 29.77 in North 3.0 mph 3.0 mph 58% 0.00 in
03:52 73.9 °F 58.2 °F 29.77 in NNW 2.0 mph 4.0 mph 58% 0.00 in
03:57 74.0 °F 58.3 °F 29.77 in NNE 3.0 mph 3.0 mph 58% 0.00 in
04:02 74.2 °F 58.0 °F 29.77 in NW 2.0 mph 3.0 mph 57% 0.00 in
04:07 74.4 °F 58.2 °F 29.77 in NNW 2.0 mph 4.0 mph 57% 0.00 in
04:12 74.5 °F 58.3 °F 29.77 in North 2.0 mph 4.0 mph 57% 0.00 in
04:17 74.4 °F 58.2 °F 29.77 in NW 4.0 mph 6.0 mph 57% 0.00 in
04:22 74.5 °F 58.3 °F 29.77 in North 3.0 mph 4.0 mph 57% 0.00 in
04:27 74.6 °F 58.4 °F 29.77 in NNE 2.0 mph 4.0 mph 57% 0.00 in
04:32 74.8 °F 58.6 °F 29.77 in NNE 4.0 mph 4.0 mph 57% 0.00 in
04:37 75.0 °F 58.8 °F 29.77 in North 3.0 mph 5.0 mph 57% 0.00 in
04:42 75.0 °F 58.3 °F 29.77 in NNE 1.0 mph 5.0 mph 56% 0.00 in
04:47 75.0 °F 58.8 °F 29.77 in NNE 3.0 mph 6.0 mph 57% 0.00 in
04:52 75.0 °F 58.8 °F 29.77 in NNE 4.0 mph 4.0 mph 57% 0.00 in
04:57 74.9 °F 58.7 °F 29.77 in NNE 2.0 mph 4.0 mph 57% 0.00 in
05:02 74.8 °F 58.6 °F 29.77 in NE 2.0 mph 4.0 mph 57% 0.00 in
05:08 74.7 °F 58.5 °F 29.77 in NNW 1.0 mph 5.0 mph 57% 0.00 in
05:13 74.5 °F 58.8 °F 29.77 in NE 3.0 mph 4.0 mph 58% 0.00 in
05:18 74.4 °F 58.7 °F 29.77 in NNE 2.0 mph 4.0 mph 58% 0.00 in
05:23 74.3 °F 58.6 °F 29.77 in NE 3.0 mph 5.0 mph 58% 0.00 in
05:28 74.3 °F 58.6 °F 29.77 in NNE 4.0 mph 5.0 mph 58% 0.00 in
05:33 74.1 °F 58.9 °F 29.77 in NNE 4.0 mph 6.0 mph 59% 0.00 in
05:38 74.0 °F 58.8 °F 29.77 in NE 3.0 mph 4.0 mph 59% 0.00 in
05:43 74.0 °F 58.8 °F 29.77 in NE 2.0 mph 5.0 mph 59% 0.00 in
05:48 73.9 °F 59.2 °F 29.78 in NE 2.0 mph 3.0 mph 60% 0.00 in
05:53 73.9 °F 59.2 °F 29.78 in North 2.0 mph 4.0 mph 60% 0.00 in
05:58 73.9 °F 59.2 °F 29.78 in NNE 2.0 mph 3.0 mph 60% 0.00 in
06:03 73.7 °F 59.0 °F 29.78 in NNE 2.0 mph 3.0 mph 60% 0.00 in
06:08 73.5 °F 59.2 °F 29.78 in NNE 3.0 mph 3.0 mph 61% 0.00 in
06:13 73.3 °F 59.0 °F 29.78 in NNE 1.0 mph 4.0 mph 61% 0.00 in
06:18 73.2 °F 59.0 °F 29.78 in NNE 1.0 mph 3.0 mph 61% 0.00 in
06:23 73.0 °F 59.2 °F 29.78 in NNE 3.0 mph 3.0 mph 62% 0.00 in
06:28 73.1 °F 59.3 °F 29.78 in NNE 2.0 mph 4.0 mph 62% 0.00 in
06:33 73.1 °F 59.3 °F 29.78 in NE 2.0 mph 4.0 mph 62% 0.00 in
06:38 73.1 °F 59.3 °F 29.79 in NE 3.0 mph 5.0 mph 62% 0.00 in
06:43 73.3 °F 59.0 °F 29.79 in NE 3.0 mph 4.0 mph 61% 0.00 in
06:48 73.3 °F 59.0 °F 29.79 in NNE 2.0 mph 4.0 mph 61% 0.00 in
06:53 73.5 °F 59.2 °F 29.79 in NE 2.0 mph 5.0 mph 61% 0.00 in
06:58 73.6 °F 59.3 °F 29.79 in ENE 2.0 mph 4.0 mph 61% 0.00 in
07:03 73.8 °F 59.5 °F 29.79 in NE 2.0 mph 6.0 mph 61% 0.00 in
07:08 74.0 °F 59.7 °F 29.80 in NE 3.0 mph 6.0 mph 61% 0.00 in
07:13 74.1 °F 59.8 °F 29.80 in NE 3.0 mph 5.0 mph 61% 0.00 in
07:18 74.2 °F 59.9 °F 29.80 in NNE 4.0 mph 6.0 mph 61% 0.00 in
07:23 74.4 °F 60.1 °F 29.80 in NNE 5.0 mph 6.0 mph 61% 0.00 in
07:28 74.6 °F 60.3 °F 29.80 in NNE 5.0 mph 6.0 mph 61% 0.00 in
07:33 74.7 °F 60.4 °F 29.79 in NE 3.0 mph 5.0 mph 61% 0.00 in
07:38 74.8 °F 60.5 °F 29.79 in NE 2.0 mph 5.0 mph 61% 0.00 in
07:43 74.9 °F 60.6 °F 29.79 in NE 4.0 mph 6.0 mph 61% 0.00 in
07:48 75.2 °F 60.8 °F 29.79 in NNE 3.0 mph 5.0 mph 61% 0.00 in
07:53 75.5 °F 61.1 °F 29.79 in NNE 5.0 mph 5.0 mph 61% 0.00 in
07:58 75.7 °F 61.3 °F 29.79 in North 2.0 mph 3.0 mph 61% 0.00 in
08:03 75.9 °F 61.5 °F 29.79 in NNE 2.0 mph 5.0 mph 61% 0.00 in
08:08 76.2 °F 61.8 °F 29.80 in NNE 2.0 mph 4.0 mph 61% 0.00 in
08:13 76.6 °F 62.6 °F 29.80 in North 2.0 mph 5.0 mph 62% 0.00 in
08:18 76.8 °F 62.8 °F 29.80 in NE 2.0 mph 5.0 mph 62% 0.00 in
08:23 77.1 °F 62.6 °F 29.80 in NNE 3.0 mph 4.0 mph 61% 0.00 in
08:28 77.6 °F 63.1 °F 29.80 in NE 3.0 mph 5.0 mph 61% 0.00 in
08:33 77.9 °F 62.4 °F 29.80 in NE 6.0 mph 6.0 mph 59% 0.00 in
08:38 78.4 °F 63.4 °F 29.80 in ENE 3.0 mph 4.0 mph 60% 0.00 in
08:43 78.8 °F 62.3 °F 29.80 in ENE 3.0 mph 8.0 mph 57% 0.00 in
08:48 79.2 °F 63.2 °F 29.80 in NNE 2.0 mph 3.0 mph 58% 0.00 in
08:54 79.7 °F 63.1 °F 29.80 in NE 2.0 mph 4.0 mph 57% 0.00 in
08:59 80.0 °F 62.4 °F 29.80 in ENE 4.0 mph 5.0 mph 55% 0.00 in
09:04 80.4 °F 62.8 °F 29.80 in NE 5.0 mph 6.0 mph 55% 0.00 in
09:09 80.9 °F 62.7 °F 29.80 in NE 3.0 mph 5.0 mph 54% 0.00 in
09:14 81.3 °F 63.1 °F 29.80 in NE 4.0 mph 5.0 mph 54% 0.00 in
09:19 81.7 °F 63.5 °F 29.80 in NE 3.0 mph 4.0 mph 54% 0.00 in
09:24 82.1 °F 63.8 °F 29.80 in East 1.0 mph 4.0 mph 54% 0.00 in
09:29 82.6 °F 63.8 °F 29.80 in NE 1.0 mph 4.0 mph 53% 0.00 in
09:34 82.7 °F 63.3 °F 29.80 in East 5.0 mph 5.0 mph 52% 0.00 in
09:39 82.9 °F 63.5 °F 29.80 in ENE 3.0 mph 5.0 mph 52% 0.00 in
09:44 83.3 °F 63.9 °F 29.80 in NE 2.0 mph 4.0 mph 52% 0.00 in
09:49 83.5 °F 64.6 °F 29.80 in NE 4.0 mph 4.0 mph 53% 0.00 in
09:54 84.0 °F 64.5 °F 29.80 in East 2.0 mph 5.0 mph 52% 0.00 in
09:59 84.4 °F 65.9 °F 29.80 in NNE 3.0 mph 4.0 mph 54% 0.00 in
10:04 84.9 °F 65.3 °F 29.80 in North 1.0 mph 4.0 mph 52% 0.00 in
10:09 85.0 °F 64.9 °F 29.80 in NNW 3.0 mph 5.0 mph 51% 0.00 in
10:14 84.9 °F 65.3 °F 29.80 in NE 2.0 mph 4.0 mph 52% 0.00 in
10:19 85.0 °F 65.4 °F 29.80 in NNW 3.0 mph 5.0 mph 52% 0.00 in
10:24 85.3 °F 65.1 °F 29.80 in NNE 4.0 mph 5.0 mph 51% 0.00 in
10:29 85.5 °F 65.9 °F 29.80 in ENE 2.0 mph 5.0 mph 52% 0.00 in
10:34 85.8 °F 66.2 °F 29.79 in NNE 2.0 mph 4.0 mph 52% 0.00 in
10:39 86.1 °F 67.5 °F 29.79 in NE 3.0 mph 4.0 mph 54% 0.00 in
10:44 86.2 °F 64.8 °F 29.79 in NE 3.0 mph 5.0 mph 49% 0.00 in
10:49 86.6 °F 64.6 °F 29.79 in NNW 4.0 mph 5.0 mph 48% 0.00 in
10:54 86.8 °F 64.8 °F 29.79 in North 2.0 mph 6.0 mph 48% 0.00 in
10:59 87.2 °F 65.1 °F 29.79 in NE 4.0 mph 7.0 mph 48% 0.00 in
11:04 87.3 °F 65.2 °F 29.79 in NE 3.0 mph 7.0 mph 48% 0.00 in
11:09 87.3 °F 64.0 °F 29.79 in NE 4.0 mph 8.0 mph 46% 0.00 in
11:14 87.7 °F 65.6 °F 29.79 in NE 4.0 mph 8.0 mph 48% 0.00 in
11:19 87.7 °F 64.4 °F 29.79 in NNE 4.0 mph 6.0 mph 46% 0.00 in
11:24 88.1 °F 64.7 °F 29.79 in NE 4.0 mph 7.0 mph 46% 0.00 in
11:29 88.1 °F 64.1 °F 29.79 in ENE 5.0 mph 9.0 mph 45% 0.00 in
11:34 88.5 °F 64.5 °F 29.79 in NE 4.0 mph 8.0 mph 45% 0.00 in
11:39 88.7 °F 64.7 °F 29.78 in East 1.0 mph 9.0 mph 45% 0.00 in
11:44 89.1 °F 63.7 °F 29.78 in NE 6.0 mph 9.0 mph 43% 0.00 in
11:49 89.2 °F 62.4 °F 29.78 in NNE 8.0 mph 10.0 mph 41% 0.00 in
11:54 89.3 °F 61.8 °F 29.78 in ENE 6.0 mph 10.0 mph 40% 0.00 in
11:59 89.3 °F 62.5 °F 29.78 in ENE 3.0 mph 10.0 mph 41% 0.00 in
12:04 89.5 °F 62.0 °F 29.77 in ENE 2.0 mph 7.0 mph 40% 0.00 in
12:09 89.9 °F 63.8 °F 29.78 in NNE 5.0 mph 8.0 mph 42% 0.00 in
12:14 90.0 °F 63.8 °F 29.77 in NNE 6.0 mph 8.0 mph 42% 0.00 in
12:19 90.0 °F 63.8 °F 29.77 in NNE 5.0 mph 9.0 mph 42% 0.00 in
12:24 90.2 °F 62.6 °F 29.77 in NE 2.0 mph 6.0 mph 40% 0.00 in
12:29 90.6 °F 63.0 °F 29.77 in NE 2.0 mph 6.0 mph 40% 0.00 in
12:34 90.6 °F 62.3 °F 29.77 in NE 5.0 mph 9.0 mph 39% 0.00 in
12:39 90.8 °F 63.2 °F 29.77 in NE 3.0 mph 6.0 mph 40% 0.00 in
12:44 91.0 °F 60.4 °F 29.77 in NNE 3.0 mph 12.0 mph 36% 0.00 in
12:50 91.3 °F 62.2 °F 29.77 in NE 5.0 mph 11.0 mph 38% 0.00 in
12:55 91.6 °F 62.4 °F 29.76 in ENE 6.0 mph 7.0 mph 38% 0.00 in
13:00 92.0 °F 61.2 °F 29.76 in NE 9.0 mph 10.0 mph 36% 0.00 in
13:05 91.8 °F 62.6 °F 29.76 in North 3.0 mph 10.0 mph 38% 0.00 in
13:10 92.4 °F 63.1 °F 29.76 in NE 8.0 mph 8.0 mph 38% 0.00 in
13:15 92.1 °F 62.1 °F 29.76 in ENE 4.0 mph 10.0 mph 37% 0.00 in
13:20 92.2 °F 64.4 °F 29.75 in East 4.0 mph 10.0 mph 40% 0.00 in
13:25 92.4 °F 63.1 °F 29.75 in NNW 3.0 mph 11.0 mph 38% 0.00 in
13:30 92.7 °F 62.6 °F 29.75 in NNE 5.0 mph 14.0 mph 37% 0.00 in
13:35 92.8 °F 64.2 °F 29.75 in NE 8.0 mph 14.0 mph 39% 0.00 in
13:40 92.8 °F 62.7 °F 29.75 in ENE 9.0 mph 12.0 mph 37% 0.00 in
13:45 93.0 °F 62.9 °F 29.75 in NE 8.0 mph 10.0 mph 37% 0.00 in
13:50 92.8 °F 62.7 °F 29.75 in NNE 7.0 mph 12.0 mph 37% 0.00 in
13:55 93.0 °F 63.7 °F 29.75 in NNE 6.0 mph 14.0 mph 38% 0.00 in
14:00 93.2 °F 62.3 °F 29.75 in NNE 7.0 mph 14.0 mph 36% 0.00 in
14:05 93.5 °F 62.6 °F 29.75 in NNW 3.0 mph 9.0 mph 36% 0.00 in
14:10 93.5 °F 62.6 °F 29.74 in NE 4.0 mph 10.0 mph 36% 0.00 in
14:15 93.7 °F 63.5 °F 29.74 in North 10.0 mph 10.0 mph 37% 0.00 in
14:20 94.0 °F 63.0 °F 29.73 in NE 9.0 mph 14.0 mph 36% 0.00 in
14:25 93.9 °F 62.9 °F 29.73 in ENE 6.0 mph 11.0 mph 36% 0.00 in
14:30 94.0 °F 63.0 °F 29.73 in NE 7.0 mph 14.0 mph 36% 0.00 in
14:35 93.8 °F 63.6 °F 29.73 in NNE 6.0 mph 12.0 mph 37% 0.00 in
14:40 94.2 °F 64.0 °F 29.72 in North 6.0 mph 12.0 mph 37% 0.00 in
14:45 94.9 °F 63.8 °F 29.72 in North 10.0 mph 13.0 mph 36% 0.00 in
14:50 94.6 °F 64.3 °F 29.72 in NNW 7.0 mph 10.0 mph 37% 0.00 in
14:55 93.9 °F 62.9 °F 29.72 in NNW 6.0 mph 13.0 mph 36% 0.00 in
15:00 93.9 °F 62.9 °F 29.72 in North 6.0 mph 12.0 mph 36% 0.00 in
15:05 95.0 °F 62.3 °F 29.71 in NNW 9.0 mph 16.0 mph 34% 0.00 in
15:10 94.6 °F 62.7 °F 29.71 in North 11.0 mph 12.0 mph 35% 0.00 in
15:15 94.6 °F 63.5 °F 29.71 in NNW 13.0 mph 18.0 mph 36% 0.00 in
15:20 94.6 °F 62.7 °F 29.71 in NNE 7.0 mph 14.0 mph 35% 0.00 in
15:25 94.9 °F 63.0 °F 29.71 in NNE 12.0 mph 12.0 mph 35% 0.00 in
15:30 95.3 °F 63.3 °F 29.71 in NE 9.0 mph 11.0 mph 35% 0.00 in
15:35 95.0 °F 63.9 °F 29.71 in NE 7.0 mph 13.0 mph 36% 0.00 in
15:40 94.6 °F 61.9 °F 29.71 in NNE 7.0 mph 15.0 mph 34% 0.00 in
15:45 94.0 °F 63.0 °F 29.71 in NNE 8.0 mph 10.0 mph 36% 0.00 in
15:50 94.6 °F 65.1 °F 29.71 in ENE 4.0 mph 11.0 mph 38% 0.00 in
15:55 94.7 °F 64.4 °F 29.70 in NNE 7.0 mph 11.0 mph 37% 0.00 in
16:00 94.3 °F 63.3 °F 29.70 in NW 3.0 mph 13.0 mph 36% 0.00 in
16:05 93.7 °F 64.3 °F 29.70 in NNE 6.0 mph 9.0 mph 38% 0.00 in
16:10 94.1 °F 63.9 °F 29.70 in NE 6.0 mph 11.0 mph 37% 0.00 in
16:15 94.5 °F 65.7 °F 29.70 in NNE 12.0 mph 12.0 mph 39% 0.00 in
16:20 94.8 °F 65.3 °F 29.70 in NNE 7.0 mph 13.0 mph 38% 0.00 in
16:25 94.2 °F 64.0 °F 29.70 in NNE 9.0 mph 14.0 mph 37% 0.00 in
16:30 94.3 °F 64.1 °F 29.69 in NNW 8.0 mph 16.0 mph 37% 0.00 in
16:35 94.4 °F 64.9 °F 29.69 in NW 10.0 mph 15.0 mph 38% 0.00 in
16:40 94.0 °F 63.8 °F 29.69 in North 11.0 mph 13.0 mph 37% 0.00 in
16:45 94.3 °F 64.1 °F 29.69 in NNE 7.0 mph 13.0 mph 37% 0.00 in
16:50 94.4 °F 65.7 °F 29.69 in NNE 7.0 mph 10.0 mph 39% 0.00 in
16:55 94.7 °F 65.2 °F 29.69 in North 11.0 mph 14.0 mph 38% 0.00 in
17:00 95.0 °F 65.4 °F 29.69 in NW 11.0 mph 14.0 mph 38% 0.00 in
17:05 94.5 °F 64.2 °F 29.68 in NW 13.0 mph 19.0 mph 37% 0.00 in
17:10 94.4 °F 64.1 °F 29.68 in NNW 6.0 mph 14.0 mph 37% 0.00 in
17:15 94.6 °F 66.6 °F 29.68 in North 5.0 mph 18.0 mph 40% 0.00 in
17:20 94.5 °F 64.2 °F 29.68 in NNE 12.0 mph 17.0 mph 37% 0.00 in
17:25 94.2 °F 64.7 °F 29.68 in North 8.0 mph 11.0 mph 38% 0.00 in
17:31 94.2 °F 65.5 °F 29.68 in North 6.0 mph 14.0 mph 39% 0.00 in
17:36 94.4 °F 64.9 °F 29.68 in NNW 9.0 mph 12.0 mph 38% 0.00 in
17:41 94.4 °F 64.9 °F 29.68 in North 11.0 mph 12.0 mph 38% 0.00 in
17:46 94.1 °F 64.6 °F 29.68 in NW 7.0 mph 14.0 mph 38% 0.00 in
17:51 94.0 °F 65.3 °F 29.68 in NE 9.0 mph 14.0 mph 39% 0.00 in
17:56 94.1 °F 65.4 °F 29.68 in ENE 8.0 mph 13.0 mph 39% 0.00 in
18:01 93.9 °F 64.5 °F 29.68 in ESE 4.0 mph 14.0 mph 38% 0.00 in
18:06 93.8 °F 65.1 °F 29.68 in North 6.0 mph 8.0 mph 39% 0.00 in
18:11 94.0 °F 65.3 °F 29.68 in North 12.0 mph 13.0 mph 39% 0.00 in
18:16 93.9 °F 65.2 °F 29.67 in NNE 12.0 mph 12.0 mph 39% 0.00 in
18:21 93.7 °F 65.0 °F 29.68 in North 11.0 mph 16.0 mph 39% 0.00 in
18:26 93.6 °F 64.9 °F 29.67 in NNE 9.0 mph 9.0 mph 39% 0.00 in
18:31 93.4 °F 64.8 °F 29.68 in NNW 10.0 mph 14.0 mph 39% 0.00 in
18:36 93.2 °F 64.6 °F 29.68 in North 10.0 mph 16.0 mph 39% 0.00 in
18:42 93.2 °F 65.3 °F 29.68 in NNE 5.0 mph 10.0 mph 40% 0.00 in
18:47 93.2 °F 64.6 °F 29.68 in NNE 6.0 mph 11.0 mph 39% 0.00 in
18:52 93.0 °F 65.8 °F 29.68 in North 13.0 mph 15.0 mph 41% 0.00 in
18:57 92.6 °F 64.8 °F 29.68 in NNW 10.0 mph 16.0 mph 40% 0.00 in
19:02 92.4 °F 64.6 °F 29.68 in NNW 7.0 mph 14.0 mph 40% 0.00 in
19:07 92.2 °F 65.1 °F 29.68 in North 7.0 mph 16.0 mph 41% 0.00 in
19:12 92.2 °F 65.1 °F 29.68 in NNE 4.0 mph 11.0 mph 41% 0.00 in
19:17 92.1 °F 64.3 °F 29.68 in North 9.0 mph 14.0 mph 40% 0.00 in
19:22 91.9 °F 64.9 °F 29.68 in NW 6.0 mph 9.0 mph 41% 0.00 in
19:27 91.8 °F 64.8 °F 29.68 in NNW 7.0 mph 13.0 mph 41% 0.00 in
19:32 91.6 °F 65.3 °F 29.68 in NNW 6.0 mph 11.0 mph 42% 0.00 in
19:37 91.3 °F 64.3 °F 29.68 in NNW 3.0 mph 12.0 mph 41% 0.00 in
19:42 91.1 °F 64.8 °F 29.68 in North 3.0 mph 13.0 mph 42% 0.00 in
19:47 91.0 °F 65.4 °F 29.68 in NNE 10.0 mph 10.0 mph 43% 0.00 in
19:52 90.7 °F 65.2 °F 29.68 in NW 12.0 mph 12.0 mph 43% 0.00 in
19:57 90.4 °F 65.5 °F 29.68 in NNW 7.0 mph 9.0 mph 44% 0.00 in
20:02 90.2 °F 65.4 °F 29.68 in NNW 5.0 mph 7.0 mph 44% 0.00 in
20:07 89.9 °F 65.7 °F 29.68 in NNW 11.0 mph 12.0 mph 45% 0.00 in
20:12 89.8 °F 65.0 °F 29.68 in North 8.0 mph 9.0 mph 44% 0.00 in
20:17 89.6 °F 65.5 °F 29.68 in NW 6.0 mph 8.0 mph 45% 0.00 in
20:22 89.4 °F 64.6 °F 29.68 in NNE 7.0 mph 8.0 mph 44% 0.00 in
20:27 89.1 °F 65.0 °F 29.68 in North 4.0 mph 8.0 mph 45% 0.00 in
20:32 88.8 °F 64.7 °F 29.68 in North 5.0 mph 7.0 mph 45% 0.00 in
20:37 88.5 °F 64.5 °F 29.68 in NNW 4.0 mph 10.0 mph 45% 0.00 in
20:43 88.2 °F 64.8 °F 29.67 in NW 4.0 mph 9.0 mph 46% 0.00 in
20:48 87.8 °F 65.1 °F 29.67 in NNW 3.0 mph 6.0 mph 47% 0.00 in
20:53 87.3 °F 65.2 °F 29.68 in NNW 4.0 mph 6.0 mph 48% 0.00 in
20:58 86.8 °F 64.8 °F 29.68 in NNW 3.0 mph 5.0 mph 48% 0.00 in
21:03 86.3 °F 64.9 °F 29.67 in NNW 3.0 mph 4.0 mph 49% 0.00 in
21:08 85.9 °F 65.1 °F 29.68 in NNW 2.0 mph 5.0 mph 50% 0.00 in
21:13 85.5 °F 64.8 °F 29.68 in North 2.0 mph 4.0 mph 50% 0.00 in
21:18 85.1 °F 65.0 °F 29.68 in NNE 3.0 mph 4.0 mph 51% 0.00 in
21:23 84.9 °F 64.8 °F 29.68 in North 3.0 mph 4.0 mph 51% 0.00 in
21:28 84.7 °F 64.6 °F 29.68 in North 3.0 mph 4.0 mph 51% 0.00 in
21:33 84.5 °F 65.0 °F 29.68 in NNW 4.0 mph 7.0 mph 52% 0.00 in
21:38 84.5 °F 65.0 °F 29.69 in NNW 3.0 mph 6.0 mph 52% 0.00 in
21:43 84.3 °F 64.8 °F 29.68 in North 3.0 mph 4.0 mph 52% 0.00 in
21:48 84.1 °F 65.1 °F 29.68 in North 2.0 mph 6.0 mph 53% 0.00 in
21:53 83.8 °F 64.9 °F 29.69 in North 3.0 mph 3.0 mph 53% 0.00 in
21:58 83.4 °F 65.0 °F 29.69 in NNW 1.0 mph 3.0 mph 54% 0.00 in
22:03 83.0 °F 64.7 °F 29.69 in NNW 1.0 mph 2.0 mph 54% 0.00 in
22:08 82.6 °F 64.8 °F 29.69 in North 2.0 mph 2.0 mph 55% 0.00 in
22:13 82.2 °F 65.0 °F 29.70 in North 1.0 mph 2.0 mph 56% 0.00 in
22:18 82.0 °F 64.8 °F 29.70 in Calm   2.0 mph 56% 0.00 in
22:23 81.7 °F 65.0 °F 29.70 in NNE 1.0 mph 2.0 mph 57% 0.00 in
22:28 81.7 °F 65.0 °F 29.70 in North 1.0 mph 3.0 mph 57% 0.00 in
22:33 81.5 °F 64.8 °F 29.70 in North 3.0 mph 3.0 mph 57% 0.00 in
22:38 81.4 °F 65.2 °F 29.71 in NNW 3.0 mph 3.0 mph 58% 0.00 in
22:43 81.3 °F 65.1 °F 29.71 in North 2.0 mph 3.0 mph 58% 0.00 in
22:48 81.2 °F 65.0 °F 29.71 in North 4.0 mph 4.0 mph 58% 0.00 in
22:53 81.2 °F 65.5 °F 29.71 in NNW 2.0 mph 4.0 mph 59% 0.00 in
22:58 81.0 °F 65.3 °F 29.71 in NNW 2.0 mph 4.0 mph 59% 0.00 in
23:03 80.9 °F 65.2 °F 29.71 in NNE 4.0 mph 4.0 mph 59% 0.00 in
23:08 80.8 °F 65.6 °F 29.71 in North 3.0 mph 4.0 mph 60% 0.00 in
23:13 80.7 °F 65.5 °F 29.71 in North 4.0 mph 5.0 mph 60% 0.00 in
23:18 80.6 °F 65.4 °F 29.71 in NNW 2.0 mph 7.0 mph 60% 0.00 in
23:23 80.5 °F 65.3 °F 29.71 in NNE 1.0 mph 4.0 mph 60% 0.00 in
23:28 80.4 °F 65.7 °F 29.71 in NNE 2.0 mph 3.0 mph 61% 0.00 in
23:33 80.3 °F 65.6 °F 29.71 in NNW 1.0 mph 3.0 mph 61% 0.00 in
23:38 80.1 °F 65.4 °F 29.72 in Calm   2.0 mph 61% 0.00 in
23:43 80.0 °F 65.8 °F 29.71 in Calm   4.0 mph 62% 0.00 in
23:48 79.8 °F 65.6 °F 29.72 in NNE 4.0 mph 4.0 mph 62% 0.00 in
23:53 79.7 °F 65.5 °F 29.72 in North 4.0 mph 5.0 mph 62% 0.00 in
23:58 79.8 °F 65.6 °F 29.72 in NE 4.0 mph 7.0 mph 62% 0.00 in
Compliments of Weather Underground